Change the Weather History Date:

Monday, March 26, 2012

  Actual Average Record
Temperature  
Mean Temperature 36 °F -  
Max Temperature 41 °F 38 °F 50 °F (1984)
Min Temperature 28 °F 27 °F 0 °F (1967)
Degree Days  
Heating Degree Days 30    
Moisture  
Dew Point 24 °F    
Average Humidity 67    
Maximum Humidity 76    
Minimum Humidity 48    
Precipitation  
Precipitation 0.00 in - - ()
Sea Level Pressure  
Sea Level Pressure 29.76 in    
Wind  
Wind Speed 1 mph (NW)    
Max Wind Speed 8 mph    
Max Gust Speed -    
Visibility 10 miles    
Events      
Averages and records for this station are not official NWS values.
T = Trace of Precipitation, MM = Missing Value Source: NWS Daily Summary

Daily Weather History Graph

Daily Weather History Graph

Search for Another Location

Airport or City:

Trip Planner

Search our weather history database for the weather conditions in past years. The results will help you decide how hot, cold, wet, or windy it might be!

Date:

Astronomy

Mar. 26, 2012 Rise Set
Actual Time 6:43 AM AKDT 7:31 PM AKDT
Civil Twilight 6:01 AM AKDT 8:13 PM AKDT
Nautical Twilight 5:11 AM AKDT 9:04 PM AKDT
Astronomical Twilight 4:14 AM AKDT 10:01 PM AKDT
Moon 7:29 AM AKDT (3/26) No Moon Set
Length of Visible Light 14h 11m
Length of Day
12h 48m
Waxing Crescent, 15% of the Moon is Illuminated
Mar 26
Waxing Crescent
Mar 30
First Quarter
Apr 6
Full
Apr 13
Last Quarter
Apr 20
New

Hourly Weather History & Observations

Time (AKDT) Temp. Windchill Dew Point Humidity Pressure Visibility Wind Dir Wind Speed Gust Speed Precip Events Conditions
12:53 AM 30.0 °F - 21.9 °F 72% 29.82 in 10.0 mi Calm Calm - N/A   Overcast
1:53 AM 30.9 °F - 21.0 °F 67% 29.82 in 10.0 mi Calm Calm - N/A   Overcast
2:53 AM 30.0 °F 26.5 °F 21.0 °F 69% 29.81 in 10.0 mi NE 3.5 mph - N/A   Overcast
3:53 AM 30.0 °F - 21.0 °F 69% 29.80 in 10.0 mi Calm Calm - N/A   Overcast
4:53 AM 30.0 °F - 21.0 °F 69% 29.79 in 10.0 mi Calm Calm - N/A   Overcast
5:53 AM 30.0 °F - 21.9 °F 72% 29.79 in 10.0 mi Calm Calm - N/A   Overcast
6:53 AM 30.0 °F - 21.9 °F 72% 29.78 in 10.0 mi Calm Calm - N/A   Overcast
7:53 AM 30.9 °F - 21.9 °F 69% 29.77 in 10.0 mi Calm Calm - N/A   Overcast
8:53 AM 33.1 °F - 21.0 °F 61% 29.77 in 10.0 mi Calm Calm - N/A   Overcast
9:53 AM 34.0 °F - 25.0 °F 70% 29.77 in 10.0 mi Calm Calm - N/A   Overcast
10:53 AM 35.1 °F - 24.1 °F 64% 29.77 in 10.0 mi Calm Calm - N/A   Overcast
11:53 AM 37.9 °F - 19.9 °F 48% 29.77 in 10.0 mi Calm Calm - N/A   Overcast
12:53 PM 39.0 °F 35.7 °F 21.0 °F 49% 29.75 in 10.0 mi NNE 4.6 mph - N/A   Overcast
1:53 PM 39.0 °F 35.7 °F 24.1 °F 55% 29.75 in 10.0 mi WSW 4.6 mph - N/A   Overcast
2:53 PM 41.0 °F - 24.1 °F 51% 29.74 in 10.0 mi Calm Calm - N/A   Overcast
3:53 PM 41.0 °F 39.0 °F 24.1 °F 51% 29.72 in 10.0 mi SSW 3.5 mph - N/A   Overcast
4:53 PM 39.0 °F 34.0 °F 30.0 °F 70% 29.73 in 10.0 mi SSW 6.9 mph - N/A   Overcast
5:53 PM 37.9 °F 32.1 °F 30.9 °F 76% 29.72 in 10.0 mi SSW 8.1 mph - N/A   Overcast
6:53 PM 37.9 °F - 30.9 °F 76% 29.72 in 10.0 mi Calm Calm - N/A   Overcast
7:53 PM 35.1 °F 32.2 °F 27.0 °F 72% 29.72 in 10.0 mi NNE 3.5 mph - N/A   Partly Cloudy
8:53 PM 33.1 °F 30.0 °F 24.1 °F 70% 29.74 in 10.0 mi North 3.5 mph - N/A   Clear
9:53 PM 30.9 °F - 24.1 °F 76% 29.73 in 10.0 mi Calm Calm - N/A   Clear
10:53 PM 30.0 °F - 23.0 °F 75% 29.73 in 10.0 mi Calm Calm - N/A   Clear
11:53 PM 28.9 °F - 21.9 °F 75% 29.72 in 8.0 mi Calm Calm - N/A   Clear